Theta_e
355 352 348 349 350 347 346 346 344 343 346 346 346 348 349 349 348 347 347 347 346 348 349 348 349 351 351 350 349 350 350 349 349 346 341 338 338 341 346 351 351 348 348 350 353 353 353 353 350 347 348 351 355 355 353 353 353 352 353 354 353 351 350 349 350 351 349 348 351 352 352 351 352 353 350 346 349 350 342 333 333 337 346 352 350
357 357 354 352 352 350 348 348 346 345 349 349 346 347 349 348 347 346 346 347 346 347 349 348 346 347 350 351 350 349 350 350 350 350 345 338 337 341 345 345 346 347 347 349 350 351 353 352 348 346 347 348 350 352 352 351 351 350 350 351 351 352 353 353 352 350 348 349 352 352 351 352 352 355 354 347 342 339 335 333 337 344 349 349 347
356 358 358 356 354 353 353 353 349 347 350 351 348 346 347 348 347 346 345 346 346 346 348 348 347 346 346 349 351 351 352 352 349 348 348 342 337 342 347 347 345 344 343 346 347 349 351 352 350 349 351 351 351 351 351 350 349 349 349 349 349 350 351 353 351 347 344 346 349 350 351 353 353 352 350 344 339 337 336 336 338 343 345 345 345
355 357 359 358 357 356 355 355 354 353 352 351 350 347 346 347 347 346 345 344 344 345 345 346 349 347 342 343 348 349 351 352 349 348 348 345 338 338 342 345 348 346 345 347 349 349 351 352 351 351 352 352 352 352 351 350 349 349 350 350 350 349 349 351 352 348 341 339 340 343 344 344 343 342 343 344 343 341 339 335 333 335 336 339 343
354 356 358 359 359 358 357 357 356 356 354 352 350 348 345 345 346 346 346 344 342 344 344 344 347 348 343 338 339 340 342 344 344 345 350 349 343 341 341 340 340 339 339 343 345 345 347 349 349 349 350 350 351 351 350 351 350 350 350 350 351 352 352 352 352 348 342 338 335 335 336 337 339 341 344 345 344 345 344 340 333 331 332 336 342
353 354 356 358 358 358 358 358 356 356 355 353 351 349 347 345 345 346 347 345 343 343 344 345 345 343 337 334 335 333 332 334 335 336 343 349 349 347 346 343 339 335 333 335 338 338 339 341 342 343 345 346 347 349 350 350 351 351 351 351 350 351 353 354 352 347 341 337 333 334 338 344 349 350 349 348 347 344 340 334 331 334 342 347 346
352 353 355 356 356 357 357 358 357 356 356 355 352 350 349 347 345 345 346 347 345 342 343 345 347 343 333 328 332 335 330 328 329 329 332 341 348 350 349 347 345 342 338 340 343 342 341 341 341 341 341 340 339 342 346 348 349 350 350 350 351 350 351 352 353 351 349 348 347 348 350 352 353 353 352 352 351 346 340 338 343 349 353 352 344
352 352 353 353 354 356 357 357 357 357 357 356 355 352 350 349 348 347 347 347 347 344 342 342 346 347 341 332 328 331 332 328 327 327 327 331 340 347 348 347 346 346 345 345 345 345 344 344 344 345 344 343 339 337 339 343 348 350 350 351 352 352 351 351 352 354 355 355 355 355 354 354 353 351 350 350 351 352 352 353 355 354 353 352 349
352 352 352 352 353 356 357 356 357 358 357 357 357 355 353 351 350 349 348 348 347 346 344 343 343 346 347 344 336 334 337 336 333 329 326 326 331 339 346 346 344 344 345 345 345 345 344 343 342 342 343 344 344 341 337 336 338 342 347 351 354 353 351 350 350 352 354 355 355 354 353 352 351 351 351 352 353 355 355 355 356 354 353 355 355
352 352 353 353 352 354 356 356 357 358 358 358 358 357 356 354 353 352 351 350 350 349 348 347 346 345 347 349 347 344 342 342 340 333 327 325 326 331 338 343 344 344 343 342 343 342 342 342 342 341 340 341 342 340 334 328 327 328 333 340 347 348 347 346 346 348 352 354 354 353 352 351 350 349 349 349 349 347 346 349 354 355 356 356 355
353 352 353 353 352 353 354 356 356 357 358 359 358 358 357 356 354 354 354 353 352 352 352 350 349 347 347 348 349 349 346 343 342 337 330 326 325 327 331 336 341 343 343 343 342 340 339 339 339 339 340 341 341 339 333 326 324 325 325 327 331 333 334 338 340 342 350 355 355 354 352 349 348 347 346 346 345 343 344 347 352 355 356 355 355
352 353 354 354 353 354 354 355 356 356 357 358 360 359 357 355 354 354 355 356 355 355 354 353 352 350 349 348 348 348 348 346 345 343 338 331 327 326 329 335 341 343 343 344 344 342 341 340 339 338 338 339 341 341 337 331 327 326 325 325 326 325 325 328 330 333 340 349 354 355 355 353 351 349 348 347 346 345 345 344 346 351 353 354 355
350 351 353 354 354 355 354 354 356 356 356 357 359 359 357 354 352 353 354 355 356 356 356 355 353 351 350 350 349 349 349 348 347 347 346 342 336 331 329 332 336 339 342 343 344 345 345 343 341 339 338 338 340 342 342 338 331 325 325 326 326 326 325 324 324 326 328 333 339 343 346 349 349 346 343 343 343 343 341 335 337 346 351 353 355
352 351 352 352 354 354 354 354 354 355 355 356 357 358 358 356 353 353 354 355 355 355 355 356 355 352 350 350 350 350 351 350 349 348 349 348 345 341 337 334 333 334 336 338 341 344 346 346 346 344 339 336 336 340 345 344 335 327 325 326 326 327 327 326 325 325 325 325 326 328 330 332 336 335 333 333 333 333 333 331 333 342 349 351 349
350 351 351 352 353 352 352 352 352 353 353 353 355 355 356 357 356 355 355 355 356 355 353 354 355 352 350 350 350 351 351 351 350 349 350 349 349 347 346 344 342 339 336 335 335 337 339 343 348 349 344 339 334 335 341 345 342 336 331 328 327 327 326 326 326 325 325 325 325 325 325 326 328 328 329 332 334 334 336 336 336 339 342 341 337
344 346 348 349 351 352 352 350 350 351 352 353 354 354 353 353 354 355 356 355 356 356 355 355 355 354 353 353 353 353 353 352 351 350 350 350 350 350 351 350 349 347 343 339 336 334 333 335 339 342 342 341 338 336 337 341 344 343 340 336 333 332 331 329 326 324 324 324 324 324 325 326 328 328 329 332 337 339 342 343 343 344 346 345 342
337 340 343 345 347 349 351 351 349 349 351 352 353 354 353 352 351 353 355 355 356 356 356 357 357 356 357 356 355 354 354 353 352 350 350 350 350 350 351 351 352 351 349 346 343 340 337 335 335 336 337 337 337 337 337 340 342 343 342 341 340 341 342 342 339 333 328 326 326 326 326 327 329 331 331 331 331 333 336 337 337 337 341 346 347
330 332 335 338 341 345 348 350 350 350 351 353 355 355 355 354 353 354 355 355 357 357 357 356 357 357 357 357 357 355 354 353 352 351 350 351 351 351 351 352 352 352 352 351 349 347 344 342 340 339 338 337 337 338 339 340 341 341 340 340 340 340 342 346 348 346 341 337 334 332 332 332 331 331 332 331 331 331 332 332 331 332 336 342 346
327 327 328 330 335 339 343 345 348 349 351 352 354 355 356 356 355 355 355 356 356 357 357 357 357 357 356 357 357 357 356 355 354 353 351 351 351 352 352 352 353 353 353 352 352 352 351 348 346 344 342 341 340 340 340 340 340 339 338 339 339 337 340 344 346 346 348 348 343 339 338 336 336 337 336 334 333 333 332 331 330 331 334 338 341
324 325 326 326 329 333 337 341 343 346 349 351 351 352 354 355 355 354 355 355 356 357 357 357 357 357 357 357 357 357 356 355 355 355 355 353 352 352 353 353 353 353 353 353 353 353 353 352 351 349 346 345 345 344 343 342 340 339 339 339 338 336 339 345 347 347 351 353 351 349 348 344 340 340 340 338 336 335 333 332 331 330 330 332 335
318 320 323 325 326 328 332 335 339 341 344 347 350 352 352 353 355 355 355 356 357 357 357 356 357 356 356 357 357 356 356 356 357 358 357 355 353 353 354 354 354 354 354 354 354 354 354 354 354 353 351 348 348 347 347 345 343 342 340 338 337 337 339 344 347 349 352 354 354 353 355 354 350 348 348 347 345 341 335 332 332 331 331 331 333
314 317 318 320 324 326 327 329 333 337 339 340 344 348 351 353 353 354 356 357 357 357 357 356 356 357 356 357 358 358 358 359 359 358 357 357 357 356 356 355 355 355 356 355 355 355 355 355 356 357 356 354 353 352 351 349 347 345 341 337 336 337 338 340 342 343 348 353 356 356 356 356 355 355 356 356 354 351 347 342 339 339 340 340 339
312 314 315 317 320 323 326 328 328 331 333 334 335 337 342 347 351 354 356 358 358 358 358 357 357 358 358 358 359 359 359 359 359 357 356 356 357 358 357 357 356 357 357 357 357 357 357 358 358 359 359 358 357 356 355 354 352 347 342 340 338 338 339 340 341 341 343 347 351 355 356 357 356 356 356 356 355 353 351 349 346 345 346 344 340
312 314 315 315 314 318 324 328 328 327 328 330 333 333 333 337 342 347 352 356 358 359 358 358 359 359 359 359 359 359 359 359 359 357 355 354 356 357 358 358 357 357 358 358 358 358 359 360 360 360 360 360 360 359 358 357 353 347 343 343 343 342 342 342 342 343 343 343 344 346 347 351 354 355 355 356 355 352 350 349 349 350 350 349 346
314 316 315 313 314 317 320 323 327 329 327 325 329 331 331 333 336 340 344 348 353 356 356 357 358 359 360 360 359 358 358 358 359 357 354 353 353 354 355 356 357 357 358 358 358 358 358 359 359 360 360 360 360 360 359 356 350 347 348 349 349 347 345 344 344 344 344 344 342 341 340 342 345 348 350 351 352 351 350 350 350 352 352 352 351
320 318 315 313 314 317 318 321 327 330 327 326 329 332 335 339 341 342 342 343 346 349 352 354 355 355 357 358 358 357 357 357 358 358 355 352 352 354 355 354 355 357 358 358 357 357 357 357 358 358 358 359 359 358 358 356 354 353 355 355 354 351 348 346 345 345 344 343 342 341 340 339 340 344 348 349 349 349 350 350 350 350 349 348 346
323 321 319 317 314 314 318 324 328 328 327 332 336 338 339 341 343 344 346 346 347 348 350 353 354 354 355 355 356 357 357 357 358 358 357 356 356 358 359 358 358 358 359 359 359 359 358 357 356 356 357 357 358 358 357 357 358 358 358 357 356 353 350 347 345 344 343 343 342 341 342 343 344 347 351 352 351 350 350 351 350 348 346 346 347
319 320 322 321 318 316 319 323 326 328 330 333 334 335 336 337 339 341 343 346 349 350 351 353 354 355 355 355 354 355 356 357 358 358 358 358 356 357 359 360 359 359 359 359 360 360 360 358 357 357 356 356 357 357 357 357 358 358 358 358 357 355 352 349 347 345 343 343 342 342 343 345 346 349 353 355 355 355 354 353 353 351 347 348 351
317 317 321 323 323 321 321 322 326 329 331 331 331 331 331 331 332 334 335 339 343 346 350 352 353 354 355 355 355 356 356 357 358 359 359 359 358 358 359 359 359 359 359 360 360 360 359 358 357 357 357 357 357 357 357 357 357 358 358 359 358 357 356 352 348 345 342 342 342 342 343 344 345 348 353 355 354 355 356 355 355 354 351 349 350
318 318 320 323 323 323 323 323 326 327 327 328 329 328 326 324 325 327 328 330 333 336 340 344 348 351 353 354 355 356 356 356 357 357 358 359 359 359 360 360 359 359 359 359 360 359 357 357 357 357 357 358 358 358 358 358 359 359 359 359 359 359 358 356 353 350 346 342 341 341 341 344 345 348 354 357 356 355 356 356 356 356 354 352 351
320 320 322 323 323 323 323 324 324 322 319 319 320 320 320 320 322 324 325 326 327 327 330 334 338 342 346 347 348 350 352 353 354 356 357 358 359 359 360 360 359 358 357 358 359 358 357 356 356 357 358 358 358 359 359 360 360 360 360 359 358 358 358 357 356 356 353 349 345 341 340 342 343 346 351 356 357 358 357 356 356 356 355 355 354
320 320 322 324 324 323 323 324 323 320 317 316 317 318 320 321 321 321 323 324 325 325 326 328 330 333 336 338 339 339 341 343 345 348 352 355 356 357 358 359 358 356 356 358 359 358 358 357 357 357 358 358 358 359 359 360 360 360 360 359 357 357 357 357 357 357 356 355 353 350 346 343 342 345 349 353 355 357 357 357 357 356 355 355 356
322 322 323 324 324 323 323 323 324 324 322 321 320 321 324 325 324 322 321 322 323 325 325 326 327 328 330 332 333 334 334 335 337 339 342 346 350 352 354 356 356 356 357 359 359 359 358 358 357 357 358 358 358 359 359 360 360 361 361 360 358 357 357 357 358 357 357 357 357 356 354 352 350 349 351 353 354 356 358 357 357 357 356 356 356
321 322 322 323 323 323 323 322 323 325 324 321 320 321 323 324 323 323 322 321 322 323 324 325 326 327 327 328 328 329 331 334 336 337 339 343 347 349 352 354 355 356 357 358 358 359 359 358 356 357 358 359 359 359 360 360 360 361 361 360 360 359 358 358 358 358 358 358 358 358 358 358 357 356 356 356 357 358 358 358 357 357 357 357 357
319 320 321 322 322 323 322 321 322 324 324 323 323 325 325 325 324 325 324 323 321 322 324 324 326 327 328 328 329 329 329 332 335 337 340 344 347 350 353 355 357 358 359 359 359 359 358 357 355 355 357 359 359 359 360 360 361 361 361 361 361 360 360 359 359 359 359 360 360 359 358 358 358 358 358 359 359 359 359 359 358 358 358 357 356
318 319 320 321 322 323 323 322 322 323 324 324 325 326 326 325 324 323 322 322 322 323 324 324 325 327 328 329 329 329 330 333 336 339 341 344 347 350 354 357 358 359 360 359 359 359 359 358 357 356 357 359 359 360 360 361 361 361 361 362 362 361 360 360 360 360 360 360 360 361 360 358 358 358 358 358 358 358 359 358 358 358 357 355 355
317 318 319 320 320 321 322 322 322 322 323 324 324 324 325 323 320 319 321 323 323 324 323 323 325 327 329 332 336 337 338 340 342 343 345 347 349 352 355 358 358 357 357 358 359 358 358 358 357 357 357 358 358 359 360 361 361 361 361 362 362 362 361 361 361 361 361 360 359 359 358 357 356 355 354 354 356 357 358 358 356 356 355 354 354
317 318 318 319 319 320 321 321 322 322 322 322 323 323 323 322 320 322 325 325 324 325 325 326 328 331 334 338 341 344 345 346 346 346 347 349 351 353 355 355 354 352 352 355 358 359 358 357 357 357 357 357 358 359 360 360 361 361 361 362 362 362 362 362 361 361 360 359 358 357 357 356 356 355 354 354 356 357 358 357 356 354 353 352 352
317 317 317 318 318 319 320 321 321 322 322 322 322 323 324 324 324 325 327 327 327 328 329 330 331 334 336 337 339 341 343 345 347 347 348 349 351 352 354 354 354 353 353 355 357 359 359 358 358 359 358 358 359 360 360 361 361 361 361 362 362 362 362 362 362 361 361 360 359 359 358 358 357 356 356 356 356 357 357 357 356 355 353 352 352
316 317 317 318 318 318 318 319 320 320 321 321 321 322 324 325 325 326 327 328 328 329 330 330 330 332 333 333 333 336 338 341 343 345 347 348 349 350 352 354 356 356 356 358 359 360 359 359 359 359 358 359 359 359 359 359 360 361 362 362 361 361 361 362 362 362 361 361 361 361 360 359 358 357 357 357 357 357 357 356 356 355 353 352 353
316 317 317 318 318 318 318 319 319 319 320 320 321 322 323 324 325 326 327 327 328 328 328 327 328 329 329 329 330 332 335 337 339 341 344 346 347 348 350 353 355 356 356 357 359 360 360 360 360 359 359 359 359 359 359 359 360 361 361 361 361 362 362 362 362 362 362 362 362 361 361 360 359 358 357 357 357 357 357 357 357 356 354 353 354
316 316 317 318 318 319 319 319 319 319 320 320 321 322 323 324 324 325 325 325 326 326 326 325 325 326 326 326 327 329 333 335 338 339 341 344 346 347 348 350 352 353 354 355 356 356 358 359 360 360 360 360 360 360 360 359 359 360 360 360 361 362 362 361 361 362 362 362 361 360 360 360 359 359 358 357 357 357 357 358 357 356 355 354 354
316 316 317 317 317 318 319 319 319 319 320 320 321 322 323 323 323 323 324 325 325 325 325 324 324 324 325 325 326 329 332 335 337 338 340 341 343 344 346 347 348 349 349 350 352 354 355 357 358 359 359 359 360 360 360 360 360 360 360 360 361 361 361 362 362 362 362 361 360 358 358 359 359 358 358 358 357 357 357 357 357 357 356 355 355
316 317 317 317 318 318 317 317 317 317 319 320 321 321 322 322 323 323 323 323 323 323 323 323 323 323 324 325 327 330 332 334 336 337 338 339 340 341 343 345 347 347 347 348 350 353 355 355 356 357 357 358 358 359 359 360 360 360 360 360 360 361 361 361 361 362 361 360 358 358 358 358 358 358 357 357 357 357 357 357 357 356 356 356 356
315 316 316 316 316 316 315 315 316 316 318 319 320 321 321 321 322 322 322 322 321 321 321 322 322 323 325 327 329 330 332 333 334 335 337 338 340 340 341 343 345 347 348 348 349 351 352 353 354 355 356 356 356 357 357 358 358 359 359 359 360 360 360 360 360 360 360 360 359 357 356 356 356 357 356 355 355 355 356 356 356 356 356 356 355
314 314 315 315 315 315 316 316 317 317 318 318 320 321 321 321 320 321 321 320 319 320 321 322 323 325 326 328 330 331 331 332 333 334 335 336 338 339 340 341 343 345 346 348 349 349 349 350 352 352 353 353 353 354 354 355 355 355 356 357 357 358 358 359 359 359 360 360 359 358 356 355 354 354 354 353 352 353 353 354 354 355 356 356 355
312 313 314 314 314 315 316 317 317 317 318 318 319 319 320 320 320 319 319 318 318 321 323 324 325 326 328 330 330 331 331 331 332 333 333 335 336 337 338 340 342 343 344 346 346 346 346 347 348 349 350 350 350 351 351 352 352 352 353 353 354 354 355 355 356 357 357 357 357 357 356 355 352 350 350 350 350 349 349 349 350 352 354 354 354
310 311 312 313 313 314 315 316 316 316 317 317 318 318 318 318 318 318 316 316 317 321 324 325 326 328 329 329 329 329 330 330 330 331 332 333 334 335 336 338 339 340 341 342 342 342 343 343 345 346 346 346 347 348 348 349 349 350 350 351 351 352 352 352 353 353 354 354 354 355 355 354 351 348 347 348 347 346 346 347 349 351 352 352 350
308 309 310 311 312 313 314 314 315 315 316 316 316 317 316 316 316 316 315 313 314 317 322 325 326 327 327 327 327 327 327 326 327 327 329 330 331 332 334 337 337 338 338 337 337 337 338 340 341 341 342 342 343 344 344 345 345 346 346 346 347 348 348 348 347 347 347 348 350 351 352 352 350 348 346 345 345 345 346 348 349 349 350 349 346
306 307 309 310 311 312 312 313 313 314 314 314 315 315 314 314 314 314 313 311 311 313 317 321 323 323 323 323 323 323 323 323 323 324 326 327 329 330 331 333 335 336 335 334 333 332 333 334 335 336 336 337 337 337 338 338 338 338 338 338 338 339 339 339 338 337 338 339 342 344 346 346 345 343 342 342 342 343 344 345 344 342 342 341 340
305 306 308 309 310 310 311 311 312 311 312 312 313 313 312 312 312 311 311 310 310 311 313 315 318 318 319 319 319 319 319 319 320 321 323 324 325 325 326 328 329 330 330 329 328 328 328 329 330 330 331 331 331 331 331 330 330 330 330 330 331 331 332 332 332 332 332 333 334 336 338 338 338 338 338 338 338 339 339 338 335 334 333 333 333
Wind_Speed
27 26 25 24 23 22 21 20 20 20 21 22 22 21 20 19 18 17 17 17 16 16 17 17 16 16 15 14 14 13 13 13 12 12 12 12 11 10 10 11 10 9 9 8 8 8 9 9 9 8 7 7 7 7 7 7 8 7 7 8 8 7 7 7 9 10 9 8 9 9 9 9 10 11 12 11 9 12 15 17 17 17 14 11 14
27 26 25 25 24 23 22 20 20 20 21 22 23 22 22 21 20 19 18 18 18 18 18 18 17 17 16 16 15 14 14 15 14 13 13 13 13 12 11 12 12 11 10 10 9 9 10 11 10 9 8 9 8 8 8 8 8 8 8 8 8 8 9 10 11 11 11 10 10 10 10 10 10 10 12 13 13 14 16 17 16 13 11 12 14
25 25 25 24 24 23 22 22 21 21 21 21 22 22 22 22 22 21 20 19 19 19 19 18 18 19 18 17 17 16 16 17 16 15 15 15 14 13 12 12 12 12 12 11 11 10 11 11 11 9 9 10 10 9 9 9 9 10 10 10 9 9 9 11 13 13 14 13 12 12 11 10 11 12 14 15 16 16 16 16 15 13 13 14 13
23 23 23 22 23 23 22 23 22 22 22 22 22 22 22 22 22 22 22 20 19 19 20 19 19 20 20 20 19 19 18 19 18 16 16 17 16 15 14 14 13 13 12 11 11 11 11 11 11 10 10 11 11 11 10 10 10 11 11 11 12 12 11 12 14 15 16 16 15 14 14 14 15 15 15 15 15 16 17 17 17 16 16 15 13
21 22 21 19 21 22 22 22 22 22 23 22 22 22 22 22 21 22 22 21 20 20 20 21 21 21 22 21 21 21 20 20 20 18 17 17 17 17 16 16 16 15 14 13 12 12 12 12 12 11 11 12 12 12 12 12 12 12 12 12 12 12 13 13 14 15 17 18 18 17 17 17 17 16 15 15 15 15 15 17 18 19 18 17 14
17 18 20 19 19 20 21 22 22 23 23 23 22 22 22 22 21 21 22 22 22 21 20 21 22 23 24 22 22 22 22 21 21 20 19 18 17 17 17 17 17 16 15 15 14 14 14 14 13 13 13 14 14 13 13 13 13 13 13 13 13 13 13 14 16 17 18 19 19 19 18 16 16 15 15 15 16 16 17 18 18 17 15 14 14
13 13 16 17 18 19 20 21 22 22 23 23 22 22 22 22 22 22 21 21 22 22 21 21 21 23 24 24 23 23 23 23 22 22 21 20 19 18 18 17 17 17 17 16 16 15 15 15 15 15 16 16 16 15 15 15 15 15 15 15 16 16 15 16 16 17 17 18 17 16 16 14 14 14 14 14 16 18 19 18 15 12 11 14 17
11 12 13 15 15 16 18 20 20 21 22 23 23 23 23 23 23 23 22 22 22 22 22 21 21 22 23 24 24 23 24 24 24 23 23 22 21 21 20 20 19 18 18 18 17 17 17 16 16 16 17 18 19 18 17 16 16 16 16 16 17 17 17 17 16 16 17 17 16 15 15 15 15 16 16 16 16 17 16 13 12 13 13 14 15
12 13 15 16 15 15 17 18 19 20 22 23 23 23 23 23 23 23 23 22 22 21 21 21 21 21 21 22 23 24 24 24 25 25 25 24 24 23 22 22 21 20 20 19 19 19 18 18 18 18 19 19 21 22 21 19 18 18 18 17 18 18 19 19 19 18 18 17 17 17 17 17 17 17 16 15 14 14 13 13 14 15 14 13 13
11 12 14 16 17 17 18 18 19 20 21 23 24 24 23 23 23 23 23 23 22 22 22 21 21 22 22 22 22 23 24 24 25 27 27 26 26 25 24 23 23 23 23 22 22 21 21 20 20 20 21 22 24 26 27 24 22 22 21 21 21 21 22 22 21 20 19 19 19 18 17 17 16 15 15 15 14 15 15 15 15 14 13 14 15
8 9 12 15 17 17 19 20 20 20 20 22 24 24 23 22 23 23 23 23 23 23 23 23 23 23 22 22 22 23 23 23 25 28 29 28 28 27 27 26 25 25 25 25 25 25 24 24 23 23 23 24 26 29 30 29 26 26 26 25 26 26 27 26 24 23 20 19 18 18 18 18 17 16 16 16 15 15 14 14 14 14 15 15 16
11 9 10 12 14 17 19 20 20 22 22 21 22 23 23 22 23 23 23 23 24 24 24 24 25 24 24 24 23 23 24 23 25 27 29 30 29 29 29 27 25 25 26 26 27 27 27 26 25 24 24 25 26 29 31 30 28 27 27 27 28 29 30 30 29 28 25 22 20 19 18 18 18 17 16 16 15 15 15 16 16 16 16 16 16
16 15 14 13 14 17 19 19 19 21 23 21 20 21 22 23 22 22 22 22 23 24 24 24 25 25 25 25 25 25 25 24 26 28 30 31 30 30 31 31 28 27 26 26 26 27 27 28 28 28 26 25 26 27 29 31 32 30 28 28 29 30 31 32 32 32 30 29 28 27 24 23 22 22 21 19 19 19 20 21 20 17 16 16 17
11 15 17 18 17 16 17 18 18 18 18 18 17 19 21 22 21 20 20 21 23 24 24 24 24 25 26 27 27 27 26 26 26 28 30 32 31 30 30 32 33 32 31 30 28 27 27 28 29 30 31 31 30 28 28 31 35 35 32 31 30 31 32 33 34 33 33 32 33 33 31 29 29 29 28 27 26 25 25 24 21 18 17 18 19
6 9 13 15 17 18 18 18 18 18 17 16 17 19 20 21 21 19 19 20 22 23 23 23 24 25 26 27 28 28 28 28 29 30 31 32 32 30 28 29 32 34 36 36 35 34 32 30 29 30 33 34 34 32 30 31 34 35 35 34 33 32 33 33 34 34 34 34 34 33 32 31 31 30 30 28 27 25 24 22 20 19 20 21 24
7 8 8 9 12 15 15 16 20 21 19 17 18 19 19 19 20 21 20 19 20 21 22 22 23 24 25 25 26 27 28 29 30 32 33 34 32 30 28 28 30 32 35 38 39 40 40 38 37 36 36 36 36 36 34 32 33 33 35 35 35 34 33 33 33 33 34 34 34 34 32 31 30 29 29 27 26 23 22 21 21 20 20 22 24
10 9 9 9 8 9 11 15 21 23 21 19 17 17 18 18 18 20 21 21 20 20 21 21 22 22 23 24 25 27 28 28 30 32 33 33 32 31 30 30 30 32 34 36 37 39 41 41 41 42 41 40 40 39 37 35 34 34 35 35 35 34 33 31 30 32 33 33 32 32 32 30 29 29 29 28 27 26 26 27 27 25 24 23 23
13 12 11 11 10 8 8 14 20 23 22 19 15 15 17 18 17 17 20 22 21 19 19 20 20 21 22 24 25 26 27 28 30 32 33 32 32 31 30 30 31 32 33 34 35 37 39 40 41 41 42 42 41 40 39 38 36 36 36 36 36 36 34 30 27 29 31 32 32 31 31 30 29 29 29 29 29 28 28 29 28 27 27 25 22
15 15 14 12 11 11 9 10 14 18 21 21 19 16 15 16 16 16 20 22 22 20 19 20 20 21 22 23 24 25 25 27 29 31 32 33 32 30 29 29 30 32 33 34 34 35 36 38 39 40 41 41 41 40 40 39 38 37 37 37 38 38 35 31 29 29 28 29 31 32 31 29 27 26 26 27 27 28 30 30 29 28 29 27 24
16 17 16 14 13 12 11 11 12 13 15 17 19 19 17 15 16 18 20 21 21 20 20 20 21 22 22 22 24 25 26 28 29 31 33 34 33 31 29 29 30 32 33 33 34 34 35 37 38 38 39 39 39 40 40 40 40 39 38 38 39 39 35 29 27 27 26 27 29 29 28 27 27 27 27 26 27 27 29 29 29 30 30 30 29
19 18 17 16 15 14 13 13 12 12 13 13 14 17 18 19 21 21 21 21 22 22 21 21 22 23 23 23 24 25 26 26 27 29 31 33 33 32 30 30 30 31 32 32 33 33 34 35 36 36 37 37 37 37 38 38 38 38 39 40 39 38 35 31 28 25 25 26 28 27 27 26 26 26 26 26 26 26 27 27 27 28 29 29 29
23 22 19 18 17 16 16 15 14 13 13 14 14 14 16 20 23 23 21 20 21 22 22 22 24 24 24 24 25 26 27 28 28 29 30 31 31 31 31 31 30 30 30 31 32 33 34 34 34 33 34 35 36 35 35 35 35 36 38 39 39 38 37 35 33 31 29 26 25 26 26 25 24 23 23 23 23 24 25 25 24 24 24 24 23
26 25 23 21 19 18 17 17 16 16 15 15 15 16 16 19 22 24 22 20 20 21 23 24 25 25 25 25 24 24 26 28 30 33 34 33 32 31 31 31 31 30 30 30 30 31 31 31 31 30 30 32 32 33 33 33 33 35 36 36 37 37 37 37 36 36 35 33 30 28 27 26 25 24 23 23 22 22 23 24 26 25 24 23 23
28 28 26 24 23 21 18 17 18 18 18 17 17 17 18 18 20 22 24 24 23 22 23 23 24 24 24 24 23 22 23 25 28 31 34 34 33 34 34 33 32 31 32 32 31 29 27 26 26 27 27 28 28 29 30 31 33 34 34 33 33 33 34 36 36 37 38 38 38 37 35 32 29 27 26 24 23 22 22 23 25 25 24 24 25
29 28 28 27 26 24 22 20 18 18 19 19 19 20 20 19 19 19 21 24 26 26 25 23 23 23 23 23 23 23 23 24 24 28 32 34 34 35 35 34 33 32 32 34 34 33 30 28 27 28 28 28 29 30 32 34 34 34 32 31 30 30 32 35 36 37 39 40 41 41 41 39 36 34 31 28 27 26 25 25 26 27 26 26 26
26 28 31 30 28 27 26 23 18 18 20 20 19 19 19 17 17 17 17 19 23 25 25 23 24 26 26 26 25 24 24 22 21 23 28 31 31 32 32 33 33 32 31 32 33 33 33 32 32 32 31 32 32 34 37 38 37 35 33 31 31 32 33 35 36 38 41 42 43 43 42 41 39 37 34 32 31 30 28 28 29 30 30 30 29
23 27 30 31 31 30 27 22 20 20 19 16 14 15 15 15 15 15 14 15 18 20 21 21 22 24 26 26 25 24 23 22 20 20 23 24 25 27 29 30 30 30 30 29 29 30 31 32 32 32 32 33 35 37 39 40 39 38 36 35 35 35 36 36 38 40 43 44 44 44 43 41 38 35 32 32 33 33 31 30 30 30 30 30 30
28 28 27 28 30 29 25 22 21 19 16 14 15 16 17 17 17 17 15 15 16 17 19 20 20 20 22 24 24 24 24 21 20 21 21 21 23 24 25 27 27 27 28 27 26 25 26 27 30 32 32 33 35 38 40 41 41 41 40 39 39 39 39 39 40 42 44 44 44 44 43 41 39 36 33 31 32 32 31 31 30 30 29 29 29
30 30 28 26 25 24 23 22 19 17 16 17 17 18 20 22 23 24 24 22 21 21 22 23 22 22 24 24 24 26 26 23 22 22 21 22 24 24 24 25 26 25 26 24 19 17 19 22 25 27 29 30 32 35 38 39 39 40 40 41 40 39 39 41 43 45 46 46 46 46 45 44 42 39 35 33 33 33 32 31 31 30 29 29 30
28 29 28 26 24 23 22 21 19 20 21 21 21 24 28 29 29 30 30 30 28 27 27 28 28 28 29 29 28 29 30 28 25 24 23 24 25 24 23 24 23 23 26 25 21 18 20 23 23 21 21 24 27 30 32 32 32 32 33 35 35 31 30 34 38 41 44 46 47 48 47 46 45 41 36 33 33 33 32 32 32 32 31 30 31
27 27 25 25 25 25 24 23 25 28 30 29 30 34 36 34 32 32 32 32 33 31 30 31 31 31 33 35 34 33 34 33 31 29 28 27 25 23 22 21 21 23 25 27 28 27 26 26 24 20 17 20 25 29 29 29 29 29 29 30 31 28 28 29 30 31 35 40 45 48 48 48 48 45 40 35 32 31 31 31 32 34 34 31 30
27 27 25 24 25 25 25 24 26 31 33 32 32 34 35 35 35 34 33 32 33 34 33 32 32 31 31 34 35 35 35 35 34 34 33 31 28 28 28 25 23 24 26 28 31 33 31 28 27 23 20 22 26 28 29 29 30 31 32 32 32 31 31 31 29 29 30 32 35 40 44 47 48 47 43 38 34 32 31 31 32 34 35 33 31
26 26 25 24 24 24 25 24 24 25 28 29 28 28 30 32 34 36 37 35 34 34 34 34 33 33 31 30 31 33 33 32 32 32 32 32 32 34 36 33 29 29 30 31 32 33 31 30 29 27 24 24 26 28 30 30 30 31 33 34 34 33 32 31 31 33 33 33 32 33 35 37 40 41 40 38 36 33 33 33 33 33 35 35 34
27 27 27 26 25 25 25 25 23 23 26 28 28 28 28 30 33 36 37 38 37 36 35 34 34 35 34 33 31 31 29 28 27 27 27 29 30 31 33 34 33 34 36 38 38 37 36 36 36 32 27 26 27 29 29 30 31 31 33 34 35 34 33 32 34 35 35 35 34 33 31 31 32 32 32 32 32 32 32 34 33 33 34 34 33
28 28 28 27 27 27 27 26 25 25 25 25 25 24 25 27 30 32 33 37 39 39 38 37 35 35 35 35 34 32 29 26 24 23 24 26 27 27 28 29 31 33 35 38 40 42 43 43 42 38 31 27 29 31 31 30 30 32 32 33 34 33 33 34 36 37 37 36 35 33 32 31 30 30 29 30 30 30 31 32 32 31 33 32 32
28 28 28 27 26 27 26 25 25 25 23 22 22 22 23 25 28 30 33 36 38 39 38 38 37 36 36 36 34 33 31 26 22 19 19 21 24 25 26 27 28 29 31 33 37 41 43 45 44 41 35 30 30 32 32 32 31 31 32 33 34 35 35 35 36 37 38 36 33 31 29 28 27 28 28 30 32 33 33 33 33 31 32 32 31
28 28 29 27 26 26 26 26 26 25 24 23 22 23 23 25 27 29 31 33 35 37 38 38 37 36 34 31 29 27 26 24 22 20 18 18 20 23 24 25 25 26 27 28 30 31 34 36 37 38 38 37 35 34 34 34 34 33 33 32 34 36 39 39 38 38 36 32 29 30 31 30 29 29 31 33 34 35 35 36 36 35 35 33 32
29 29 30 29 27 27 27 27 26 26 25 24 23 23 24 25 25 25 27 30 33 35 35 34 33 30 26 22 20 20 21 21 22 22 21 19 18 20 23 25 27 28 28 25 22 23 25 27 27 28 32 34 35 35 35 35 35 34 34 33 34 36 38 39 40 40 37 34 34 36 37 37 35 33 33 35 36 36 36 36 38 40 39 36 35
28 29 30 30 30 30 30 29 26 25 25 24 23 23 24 24 23 23 24 26 28 29 29 28 26 23 23 24 24 24 23 22 20 19 19 19 19 19 21 23 26 29 29 25 21 22 25 26 26 27 29 29 29 30 33 35 35 35 35 35 37 39 39 38 39 40 39 36 35 35 36 38 39 38 37 38 38 38 38 37 39 42 41 39 37
27 27 29 29 29 30 31 31 29 27 26 26 25 24 24 24 23 23 22 22 24 25 25 25 24 23 26 30 30 27 26 26 25 22 20 20 21 21 20 21 22 23 23 22 21 22 26 28 29 32 34 34 32 31 31 33 34 34 33 34 37 41 41 38 37 39 40 37 36 36 37 38 38 38 40 41 41 41 40 40 40 42 42 41 40
26 27 28 28 29 28 27 27 27 27 27 26 25 25 25 24 23 23 22 21 23 23 24 26 26 26 28 33 34 31 29 29 30 29 26 24 24 25 24 23 22 22 22 22 23 24 27 29 30 33 34 36 37 36 34 35 34 33 33 33 35 38 40 37 35 38 41 39 38 38 39 38 37 38 40 42 42 42 43 44 43 42 42 42 41
29 29 28 28 28 27 26 25 25 25 26 26 25 25 26 25 25 24 22 21 21 21 22 25 27 27 29 35 37 35 32 30 31 31 31 29 28 28 27 26 26 27 26 26 26 27 28 30 32 34 35 36 37 38 37 38 37 36 35 34 34 35 35 32 31 34 38 40 40 40 39 39 38 39 40 42 43 44 44 45 45 44 44 43 43
28 28 28 28 28 26 26 26 26 25 25 25 25 26 25 24 25 24 22 19 18 19 20 24 28 30 33 38 39 37 34 32 31 32 34 34 33 31 29 29 30 31 31 30 30 31 32 33 34 35 36 36 37 38 38 37 37 37 36 36 36 36 35 32 29 28 29 30 33 35 37 38 39 40 40 42 44 45 44 44 44 44 44 44 44
24 23 23 25 26 27 28 29 30 29 26 25 26 26 26 25 25 25 23 20 19 19 21 25 29 34 37 39 39 37 35 34 32 31 32 34 34 32 31 30 31 31 30 30 31 33 35 35 36 36 36 37 38 40 40 40 39 40 40 39 39 40 39 39 38 35 31 27 26 27 29 32 35 39 41 42 45 46 46 46 46 46 46 46 45
26 23 22 23 25 28 30 31 31 30 28 28 27 27 27 26 26 25 23 20 18 21 25 29 32 35 37 38 37 36 36 35 32 30 30 31 32 31 30 29 29 30 29 28 30 33 37 38 39 38 38 39 40 40 41 42 43 43 43 43 44 44 44 44 44 43 42 40 38 36 34 33 33 35 36 38 42 46 49 49 49 48 47 47 46
29 27 26 26 27 27 28 29 29 28 28 27 26 25 25 25 25 24 22 20 20 24 29 32 33 34 36 36 36 35 35 34 32 30 29 29 30 29 28 27 28 29 28 28 29 33 36 39 39 39 39 40 41 41 41 41 41 42 42 42 43 44 45 46 46 46 46 46 46 45 43 41 39 38 36 34 36 40 44 46 49 49 48 49 48
28 30 31 31 30 28 27 26 26 26 27 27 27 25 24 24 24 23 22 22 25 29 31 31 32 34 34 34 34 34 33 32 31 29 29 29 29 29 28 27 27 28 29 29 31 32 34 35 36 36 37 37 38 37 37 36 36 36 37 37 38 38 39 40 41 42 43 43 43 43 43 43 43 43 40 38 39 40 40 42 45 48 49 48 46
23 27 30 30 30 28 26 24 24 25 26 27 27 25 23 22 22 21 20 22 26 29 30 30 32 33 33 32 33 32 31 30 29 28 28 28 28 28 28 27 27 27 27 27 28 29 29 30 30 31 31 31 30 31 32 33 34 35 35 36 36 36 36 36 37 38 39 40 41 42 43 42 40 39 37 36 38 39 39 39 41 45 47 44 40
22 23 25 26 26 25 24 23 23 23 23 22 21 20 21 23 23 21 19 20 23 26 28 29 31 31 31 31 31 30 29 28 27 26 26 27 27 26 26 26 26 25 24 23 23 23 23 24 24 23 23 24 25 26 27 28 29 30 30 31 31 31 32 31 31 32 33 35 37 39 39 39 38 36 35 37 38 38 37 37 39 41 42 39 34
24 23 23 23 23 23 22 21 20 19 20 22 21 19 18 19 19 19 19 20 22 23 26 27 28 28 28 28 28 27 26 25 24 24 24 24 24 23 23 23 23 22 20 18 17 16 15 15 15 15 15 16 16 16 16 15 15 15 15 15 16 17 18 17 16 17 20 24 28 31 32 32 29 28 29 31 31 30 30 31 30 28 27 26 25
21 21 21 20 20 21 20 19 19 19 22 25 25 22 18 16 17 18 19 21 21 22 23 24 24 24 24 24 24 23 23 22 21 21 21 20 19 18 17 17 16 15 13 11 10 9 9 8 8 8 7 7 6 4 3 2 2 3 4 5 6 6 6 6 6 7 8 11 14 18 19 19 19 19 21 22 21 21 23 23 21 19 19 20 22
Wind_Direction
202 206 206 205 208 209 212 215 216 216 213 211 212 211 212 213 211 212 213 212 212 217 221 218 217 219 218 218 217 218 225 225 224 230 231 230 233 232 227 233 242 243 241 238 236 245 251 252 252 251 252 254 255 260 264 269 274 273 272 272 270 269 266 263 267 275 278 276 281 288 286 286 290 293 298 304 305 301 305 312 319 326 329 320 314
199 201 202 203 206 208 210 212 216 217 212 212 214 213 213 215 212 210 212 214 213 214 220 222 221 220 218 218 218 216 222 227 223 225 232 235 234 235 234 235 238 240 241 243 241 241 247 252 255 256 257 259 260 259 261 262 265 269 269 267 268 268 267 268 270 274 279 282 283 284 286 288 288 287 291 297 299 298 303 310 315 318 312 307 312
201 198 198 201 204 206 207 208 213 216 211 210 213 213 214 216 215 213 211 213 216 216 218 219 221 224 221 218 219 217 219 227 228 224 229 237 237 232 231 237 245 247 244 246 249 248 248 251 255 256 256 259 261 260 259 257 258 261 261 260 261 261 261 267 271 275 278 280 280 282 284 281 277 280 287 295 300 303 306 308 309 309 304 306 312
201 199 197 199 202 204 206 206 208 212 210 209 212 212 213 214 215 216 213 212 216 218 220 217 217 224 226 221 221 221 220 225 229 227 228 236 240 237 232 232 237 244 244 243 245 247 248 250 252 253 251 253 256 256 256 256 256 257 258 260 261 261 260 260 264 273 280 283 284 286 286 284 284 289 293 295 298 301 304 305 307 310 307 306 308
199 199 198 198 200 202 205 206 206 209 209 210 212 211 211 212 213 215 215 214 214 217 222 221 215 221 228 228 228 229 229 230 232 230 227 234 241 241 239 239 240 241 240 237 236 238 240 243 246 248 250 252 254 256 258 257 258 258 259 259 260 264 264 261 262 270 278 284 289 291 292 293 294 295 293 292 294 295 299 303 307 311 309 308 308
201 201 198 199 203 203 204 207 208 210 210 211 213 213 212 212 212 214 215 215 214 213 218 221 219 223 230 233 233 234 237 237 238 237 230 230 237 240 239 242 244 243 242 242 243 244 246 247 247 247 248 250 252 253 256 256 257 256 257 257 257 257 259 261 267 273 278 283 289 292 293 293 292 293 294 295 295 294 298 303 305 307 304 300 301
205 208 202 201 205 205 208 211 211 213 213 213 214 214 215 214 213 214 215 215 215 214 215 217 220 226 233 236 234 236 239 240 241 242 237 230 231 236 237 237 239 242 243 244 244 247 250 252 254 254 254 257 257 255 254 256 258 258 257 258 258 257 257 259 264 270 274 278 282 285 287 286 284 285 288 291 290 295 304 308 307 302 290 288 297
221 224 217 208 205 208 213 214 215 215 215 216 216 215 216 217 216 216 217 216 216 217 217 218 220 224 231 236 236 235 239 242 242 242 242 238 233 233 235 235 235 238 241 243 242 244 247 249 251 253 256 261 265 263 257 252 255 258 258 258 257 258 259 258 258 261 264 267 269 272 275 276 277 279 283 285 285 290 300 302 296 290 287 291 300
233 232 226 215 208 212 215 216 216 216 215 216 216 216 217 218 218 218 217 219 219 219 220 221 221 223 226 232 236 234 233 237 241 242 243 242 239 236 236 237 238 238 239 242 243 244 247 249 250 251 252 256 262 265 264 259 257 258 258 257 256 257 260 260 258 257 258 260 264 267 270 272 275 278 282 283 282 285 289 287 286 289 291 291 291
226 226 229 228 224 220 218 218 218 216 216 215 215 216 216 217 219 220 219 220 220 221 221 221 223 224 224 228 231 232 229 229 235 241 243 244 243 240 237 237 240 241 241 243 245 246 248 250 252 253 253 253 255 260 266 269 268 265 262 259 258 258 260 262 262 261 260 261 263 266 268 270 273 276 278 280 282 286 288 285 285 289 289 286 287
224 220 230 239 239 231 226 225 223 219 218 217 215 217 217 215 216 217 219 221 221 221 222 223 225 226 226 228 230 231 232 230 234 241 245 244 243 243 241 240 240 242 244 245 246 249 251 251 252 253 253 253 254 259 267 271 271 268 267 265 263 263 263 263 263 263 261 261 263 265 266 268 271 272 274 278 283 286 286 284 282 283 283 283 286
229 234 238 237 237 237 233 231 230 224 219 218 219 220 221 220 217 215 216 218 218 220 222 224 228 229 228 229 231 233 235 234 235 242 247 247 244 242 242 241 240 241 244 246 248 250 251 251 252 252 253 255 257 262 270 274 272 268 267 267 266 266 266 266 265 264 262 260 260 260 262 265 267 269 271 276 280 280 279 281 282 281 281 282 282
229 239 247 242 237 238 234 231 235 232 224 220 220 225 230 232 228 221 218 218 219 221 224 226 230 234 233 231 231 233 235 237 238 241 247 251 249 245 242 241 240 240 243 245 248 250 251 252 252 251 251 252 255 260 267 272 273 272 269 267 266 266 266 267 267 268 267 265 263 262 263 264 265 268 271 273 275 277 279 284 287 284 281 279 278
234 240 248 250 251 251 241 232 235 243 241 232 226 227 233 238 238 231 224 221 221 223 226 227 231 235 236 234 233 233 233 233 236 240 246 252 253 250 246 244 243 243 242 243 244 246 250 252 253 254 254 254 254 254 257 263 270 274 274 271 268 266 266 267 267 268 269 268 268 269 271 270 269 272 275 276 278 281 284 286 287 282 278 277 280
269 258 255 257 260 259 251 240 239 248 252 244 237 236 237 238 239 237 230 225 225 228 230 230 232 237 240 238 237 236 234 233 233 235 241 248 252 253 250 247 246 246 246 246 245 245 247 248 249 253 257 259 259 257 254 256 263 270 273 273 272 269 267 266 266 267 268 270 272 275 277 277 275 275 276 276 277 282 286 287 285 281 280 282 288
327 307 290 283 272 262 254 245 244 246 245 241 240 241 240 240 242 242 239 232 229 230 232 231 232 236 240 239 237 236 236 236 236 237 239 243 249 252 251 248 246 246 247 248 249 249 250 250 250 253 256 259 261 261 259 257 258 262 268 272 274 273 271 269 268 268 269 270 273 276 278 279 278 276 274 273 272 274 276 276 275 276 278 283 289
345 335 327 323 304 272 244 236 241 243 242 242 244 241 241 244 248 247 245 241 236 232 232 232 232 232 233 236 238 239 239 239 239 241 242 244 246 248 249 248 247 247 247 249 250 252 253 253 254 256 258 259 262 264 264 262 260 260 263 267 270 270 270 270 271 273 273 273 274 277 278 278 276 273 272 272 271 271 268 268 272 275 275 276 280
344 343 339 336 327 305 262 240 242 243 240 239 240 240 240 244 247 247 246 245 241 236 232 233 233 233 232 234 237 241 243 245 245 244 244 244 245 246 248 249 250 249 249 250 250 252 254 255 256 257 259 260 262 263 264 264 263 262 264 265 267 267 267 266 266 270 274 276 277 277 278 278 276 273 271 271 272 271 268 269 273 275 272 271 271
342 341 338 339 336 326 310 279 261 251 243 240 240 240 240 238 239 244 248 248 246 241 236 234 234 235 234 235 236 237 239 244 248 249 248 247 246 246 248 249 250 250 250 251 252 253 254 256 257 257 259 261 263 263 263 263 264 264 265 266 267 267 267 265 263 263 265 270 274 277 278 279 278 276 273 270 270 269 268 270 272 270 268 268 268
337 337 336 338 335 330 328 318 298 276 259 248 244 243 244 240 235 236 243 247 246 242 240 239 239 238 236 236 237 238 239 242 245 247 248 248 246 244 245 248 250 251 251 251 253 254 256 258 259 260 261 262 262 263 264 264 264 265 265 265 266 267 267 264 261 260 259 260 266 272 276 278 277 275 273 271 269 267 267 268 268 268 268 268 268
330 332 333 336 334 331 329 323 311 298 284 270 255 246 244 244 242 238 238 239 239 239 238 237 240 242 241 239 239 239 240 240 241 243 246 248 247 246 246 247 248 251 253 253 254 255 257 259 262 264 266 266 265 265 264 264 264 264 263 263 265 266 266 262 257 256 256 257 260 262 264 268 271 272 271 270 271 272 273 271 268 267 267 267 266
324 325 326 330 331 331 329 324 319 312 298 284 273 257 245 243 246 247 244 240 239 240 239 237 238 239 239 240 241 240 238 237 236 238 242 246 248 248 248 248 249 251 254 255 255 255 256 259 260 262 266 269 270 270 269 267 266 263 262 262 263 264 264 263 259 254 251 252 256 259 258 258 260 261 260 260 263 267 273 276 276 273 270 269 270
317 318 318 321 323 327 330 327 321 316 307 296 288 279 264 252 249 249 248 246 245 245 243 241 241 240 239 239 240 242 243 243 240 240 241 243 245 247 249 249 249 252 256 256 256 256 257 259 260 260 263 267 270 272 272 271 269 266 264 263 263 263 263 263 261 257 253 250 250 252 254 255 255 255 254 254 255 256 260 266 273 276 273 271 273
311 313 312 313 316 320 324 324 322 317 308 298 292 288 282 273 263 256 251 250 252 255 253 250 248 247 246 246 245 246 250 250 248 245 243 242 244 246 248 249 250 252 255 257 256 254 254 256 258 259 261 264 267 269 271 271 269 268 266 265 264 262 261 260 259 258 256 254 252 252 253 253 253 254 253 253 254 256 254 254 260 266 267 267 270
306 305 304 307 313 315 314 316 320 316 307 299 294 292 292 290 285 277 265 255 254 257 261 260 257 254 255 253 249 249 253 254 252 250 248 246 245 247 249 251 252 253 256 257 257 256 253 251 251 254 256 257 260 263 266 269 270 271 270 268 265 260 257 256 255 256 256 256 255 255 255 255 255 255 256 256 256 255 254 252 251 252 255 259 263
301 298 298 303 307 309 311 313 313 310 307 306 304 301 300 299 294 290 284 273 264 261 262 264 263 263 265 264 258 254 256 256 252 252 255 254 252 252 253 254 254 254 256 258 259 259 258 254 251 252 255 256 258 260 264 269 272 273 271 267 262 258 254 252 252 252 254 255 256 256 257 257 258 258 259 260 260 258 255 253 253 255 257 260 262
292 294 296 298 299 301 306 308 307 308 310 308 302 297 295 293 290 287 288 287 282 276 271 269 269 269 271 271 267 262 261 261 256 253 256 260 261 262 263 261 255 251 253 257 259 261 261 259 256 254 255 256 256 258 261 266 268 268 266 263 260 257 255 253 253 253 254 255 255 256 257 256 256 256 256 258 260 260 258 254 254 258 262 263 263
285 289 291 293 294 297 299 300 302 305 303 296 291 290 288 286 285 282 276 269 267 268 268 266 264 264 267 269 269 266 264 264 262 257 253 254 258 260 263 265 262 256 256 261 263 265 266 264 260 257 255 254 254 255 257 260 262 264 264 264 263 261 259 256 254 253 254 255 254 255 255 254 253 252 250 250 254 257 259 258 256 257 260 262 261
283 284 286 288 290 291 292 293 294 294 291 292 293 289 284 281 279 276 271 265 259 257 258 258 256 255 256 256 257 261 262 258 255 255 252 249 250 249 251 258 264 266 267 267 264 264 268 267 264 261 258 254 253 254 256 257 260 261 263 264 266 265 263 260 257 255 254 254 254 254 254 254 253 251 248 247 249 251 254 257 257 257 259 260 259
282 282 282 283 283 284 285 285 282 280 284 289 289 285 282 280 279 279 277 274 271 268 264 261 258 257 256 253 249 253 258 257 255 255 255 254 252 249 247 249 255 263 269 268 263 261 265 265 265 263 257 253 252 253 254 255 255 255 258 264 265 261 257 259 261 260 258 256 255 255 254 254 253 251 246 244 246 248 249 253 255 257 258 260 260
279 279 279 279 279 280 280 280 278 278 281 284 286 287 287 284 281 280 279 278 277 276 274 270 266 263 262 261 258 256 257 260 261 260 259 259 257 253 252 253 254 259 265 266 266 266 266 266 265 262 255 252 252 252 252 252 250 249 252 257 259 254 248 249 254 256 258 259 258 256 255 253 253 252 249 245 245 246 248 250 253 256 258 260 260
275 275 274 273 274 276 277 278 280 281 283 284 284 286 289 288 285 281 279 278 278 278 278 277 275 271 267 265 266 265 264 265 265 264 263 264 263 260 263 265 262 258 258 259 260 261 262 264 266 264 256 252 251 251 251 250 250 251 251 252 253 251 249 249 248 248 249 251 254 255 255 255 254 254 251 248 247 246 247 248 250 254 259 260 258
272 271 271 269 269 272 274 276 279 279 279 280 281 282 284 288 287 285 282 279 277 277 277 277 277 276 273 271 270 271 271 271 271 270 267 264 262 262 265 267 264 258 255 255 255 256 257 261 264 264 260 254 252 252 252 250 249 250 251 251 251 251 251 252 252 252 251 248 246 247 250 252 253 253 252 250 248 245 245 246 246 250 255 258 258
269 268 268 267 266 266 267 269 272 274 275 277 279 279 280 282 285 286 286 284 282 280 279 278 277 276 276 276 276 276 275 274 275 276 274 269 263 261 262 263 261 257 254 253 254 256 257 260 264 265 262 256 253 253 252 251 251 250 250 250 250 250 251 252 252 254 254 252 247 245 244 244 246 248 247 246 243 241 243 246 246 246 248 252 255
265 266 266 266 265 265 264 264 266 269 272 275 275 275 277 278 279 281 284 285 286 286 284 283 282 280 278 278 278 279 281 280 277 276 274 270 265 261 261 262 261 258 256 254 254 256 258 261 264 265 261 254 253 253 253 252 251 250 250 250 249 248 248 250 250 251 251 250 248 245 242 242 244 246 246 246 244 242 243 246 247 246 246 249 253
263 263 264 264 262 262 262 262 263 265 268 270 271 272 273 271 272 276 282 285 288 288 288 288 288 285 282 282 282 284 287 289 287 283 277 269 262 258 256 258 261 263 263 261 260 259 258 260 261 260 255 250 249 250 251 251 251 250 249 249 250 250 250 250 251 251 250 249 248 245 242 243 246 249 250 251 251 248 247 248 248 247 248 250 253
262 261 260 260 260 260 259 260 261 263 264 265 267 270 270 270 272 278 282 285 286 286 287 290 291 290 290 291 294 296 295 293 291 288 283 275 265 257 253 255 260 265 268 268 266 263 260 258 257 255 252 249 249 249 249 249 250 251 250 250 250 251 252 252 252 252 252 253 255 255 254 254 254 253 251 250 249 247 246 247 248 248 250 252 252
261 260 258 256 256 258 259 259 259 260 262 263 266 268 269 272 275 278 279 281 284 286 288 289 291 292 294 293 289 285 284 285 289 291 289 283 273 264 259 258 260 263 265 263 259 256 256 256 255 254 253 253 253 251 250 251 251 251 252 253 253 252 252 254 255 256 258 260 262 262 262 260 258 255 253 251 249 245 242 242 244 246 248 249 250
261 260 259 256 254 254 257 257 256 256 258 261 264 266 267 268 271 273 273 276 280 283 285 286 286 287 287 281 273 267 266 271 280 289 292 290 286 279 270 263 262 263 264 263 258 254 255 256 255 254 255 257 257 255 254 254 255 255 255 255 256 257 257 256 258 260 263 262 262 262 263 262 260 259 256 253 251 248 245 244 243 244 245 246 247
262 261 261 259 256 254 255 255 255 256 257 260 263 264 264 265 266 267 268 272 275 277 278 280 281 282 280 279 276 272 267 263 262 267 275 281 281 278 272 265 261 258 257 256 253 251 253 255 254 252 251 252 253 255 256 256 256 257 256 256 258 260 260 258 258 261 264 264 262 262 263 262 261 259 256 255 253 251 250 248 246 247 248 248 246
260 259 259 259 257 254 253 254 255 255 257 260 261 261 261 262 263 263 264 266 269 272 274 275 278 278 277 278 279 279 276 271 264 261 263 264 264 264 262 261 260 258 252 249 246 245 248 251 252 251 251 251 251 250 250 250 252 254 255 255 256 259 260 259 258 260 262 262 261 261 262 262 260 257 255 255 255 254 252 251 251 252 252 249 245
259 257 256 255 253 251 251 253 254 255 256 258 258 259 260 261 261 261 262 263 265 269 271 274 276 277 277 279 281 282 282 277 268 262 259 258 256 256 256 257 260 263 262 260 259 258 256 255 252 251 251 252 254 253 250 249 250 250 251 251 252 255 257 258 258 260 262 263 263 262 262 262 261 260 258 257 256 255 254 254 255 255 253 249 245
264 261 257 254 251 250 251 253 253 252 254 256 258 259 260 260 260 259 259 261 264 266 269 273 276 278 279 281 283 284 282 277 269 263 262 260 259 259 258 256 257 260 262 263 264 264 262 259 257 255 253 252 253 254 253 252 251 251 251 251 252 253 255 255 256 259 264 267 269 270 270 267 264 263 262 260 259 256 255 255 257 257 254 250 247
268 265 261 259 258 258 257 257 255 253 253 256 258 257 257 258 258 257 257 259 262 264 268 273 277 279 281 282 283 283 283 279 272 267 265 265 264 263 263 261 260 260 262 262 262 262 261 261 261 261 260 259 257 256 255 254 254 255 256 256 256 256 257 258 259 260 260 261 266 272 275 273 269 266 264 263 262 259 256 256 258 257 255 252 249
267 268 266 265 265 264 262 260 259 258 258 258 258 256 256 258 258 256 256 258 259 262 267 272 275 277 280 282 282 282 282 280 277 272 269 268 268 267 268 268 266 264 263 263 262 261 261 262 261 261 262 263 264 263 261 258 256 256 256 257 257 256 256 257 258 259 260 263 266 269 270 270 270 268 265 265 265 264 261 260 260 257 254 252 250
266 267 266 264 264 264 264 261 260 259 259 257 256 254 255 257 258 256 254 255 258 263 269 273 275 277 278 280 280 280 280 280 279 276 272 271 271 269 269 268 266 264 263 263 263 261 260 260 261 261 261 263 264 266 265 263 262 261 261 261 261 261 259 259 260 262 263 267 271 272 271 268 266 265 265 266 267 267 265 264 263 259 255 253 250
266 265 264 265 264 263 262 261 260 260 259 256 255 255 254 254 254 253 252 254 260 266 271 274 275 275 276 276 278 279 279 278 277 276 273 272 270 269 266 264 262 262 262 262 262 262 261 260 261 261 262 264 265 267 268 268 268 268 267 267 267 267 266 267 268 268 268 269 271 271 272 270 266 264 264 264 265 266 267 269 268 263 258 254 250
269 265 263 262 260 258 257 257 258 259 259 257 255 255 253 251 251 254 256 258 262 267 270 272 272 273 274 275 276 277 278 277 276 274 272 269 267 266 265 264 263 263 262 262 263 264 264 265 265 265 266 268 270 272 273 274 274 274 274 273 272 272 271 272 272 272 272 272 272 272 271 270 267 263 261 261 262 264 267 268 266 261 257 255 249
272 269 264 259 255 255 257 259 259 258 258 256 255 254 253 251 251 253 256 259 262 264 266 269 271 272 273 274 275 275 275 274 272 270 268 266 264 264 265 267 268 268 268 267 267 267 267 268 269 270 272 275 276 276 276 276 275 275 275 275 274 273 272 272 275 277 277 276 276 274 272 270 267 263 259 259 261 262 260 257 253 250 250 248 240
275 273 268 262 257 255 256 256 254 252 252 251 250 251 253 253 253 253 254 258 262 265 267 269 271 272 272 272 272 273 271 269 266 263 262 261 261 261 261 262 263 265 265 266 268 270 271 273 276 277 278 278 276 275 275 275 275 276 278 280 282 283 281 281 287 294 294 289 284 278 272 268 267 264 260 259 258 254 247 240 235 232 230 225 214
274 270 264 259 256 255 253 251 250 252 254 254 253 252 251 251 251 252 254 257 261 264 266 268 269 270 270 269 268 267 265 263 261 259 257 256 255 253 251 250 250 250 251 253 256 259 262 263 264 263 261 258 255 254 262 282 327 356 0 1 2 357 350 347 352 356 345 325 306 294 283 273 263 254 247 242 237 228 218 210 199 187 181 179 176